• In Hungary
  • List of Countries
  • For 7 days
  • Water Temperature
  • Satellite Maps
  • Weather Map
  • News
  • Weather Widgets
  • user-avatar
    Login

    Hourly Weather Mushkovatovo

    Today, 24 June, Sunday

    Time Temperature Precipitation Wind Pressure Humidity
    00:00 +22°C° 0 mm 4 mps 747 mmHg 78%
    01:00 +22°C° 0 mm 4 mps 747 mmHg 79%
    02:00 +21°C° 0 mm 3 mps 747 mmHg 79%
    03:00 +21°C° 0 mm 4 mps 747 mmHg 76%
    04:00 +21°C° 0 mm 4 mps 747 mmHg 77%
    05:00 +21°C° 0 mm 4 mps 746 mmHg 77%
    06:00 +22°C° 0 mm 4 mps 746 mmHg 77%
    07:00 +23°C° 0 mm 5 mps 746 mmHg 72%
    08:00 +25°C° 0 mm 5 mps 746 mmHg 67%
    09:00 +27°C° 0 mm 5 mps 746 mmHg 63%
    10:00 +28°C° 0 mm 5 mps 746 mmHg 59%
    11:00 +29°C° 0 mm 5 mps 746 mmHg 55%
    12:00 +30°C° 0 mm 6 mps 747 mmHg 51%
    13:00 +30°C° 0 mm 5 mps 747 mmHg 50%
    14:00 +32°C° 0 mm 5 mps 747 mmHg 50%
    15:00 +33°C° 0 mm 4 mps 747 mmHg 48%
    16:00 +32°C° 0.5 mm 4 mps 747 mmHg 54%
    17:00 +30°C° 0.5 mm 4 mps 747 mmHg 59%
    18:00 +29°C° 0.5 mm 4 mps 747 mmHg 65%
    19:00 +26°C° 1.2 mm 4 mps 747 mmHg 74%
    20:00 +23°C° 1.2 mm 4 mps 747 mmHg 82%
    21:00 +21°C° 1.2 mm 3 mps 748 mmHg 91%
    22:00 +20°C° 2.3 mm 3 mps 748 mmHg 93%
    23:00 +19°C° 2.3 mm 3 mps 748 mmHg 95%

    Tomorrow, 25 June, Monday

    Time Temperature Precipitation Wind Pressure Humidity
    00:00 +18°C° 2.3 mm 3 mps 749 mmHg 96%
    01:00 +17°C° 0.6 mm 3 mps 749 mmHg 95%
    02:00 +17°C° 0.6 mm 4 mps 750 mmHg 95%
    03:00 +15°C° 0.6 mm 4 mps 750 mmHg 94%
    04:00 +15°C° 0 mm 4 mps 751 mmHg 92%
    05:00 +14°C° 0 mm 4 mps 751 mmHg 91%
    06:00 +14°C° 0 mm 4 mps 751 mmHg 90%
    07:00 +15°C° 0 mm 4 mps 752 mmHg 83%
    08:00 +17°C° 0 mm 4 mps 752 mmHg 77%
    09:00 +19°C° 0 mm 4 mps 753 mmHg 70%
    10:00 +20°C° 0 mm 4 mps 753 mmHg 65%
    11:00 +21°C° 0 mm 4 mps 753 mmHg 60%
    12:00 +22°C° 0 mm 3 mps 753 mmHg 55%
    13:00 +24°C° 0 mm 3 mps 754 mmHg 54%
    14:00 +24°C° 0 mm 3 mps 754 mmHg 53%
    15:00 +24°C° 0 mm 3 mps 754 mmHg 52%
    16:00 +24°C° 0 mm 3 mps 754 mmHg 55%
    17:00 +24°C° 0 mm 3 mps 754 mmHg 57%
    18:00 +24°C° 0 mm 2 mps 754 mmHg 59%
    19:00 +21°C° 0 mm 2 mps 754 mmHg 65%
    20:00 +19°C° 0 mm 2 mps 755 mmHg 71%
    21:00 +18°C° 0 mm 2 mps 755 mmHg 77%
    22:00 +17°C° 0 mm 2 mps 755 mmHg 79%
    23:00 +16°C° 0 mm 2 mps 755 mmHg 81%

    Day after tomorrow, 26 June, Tuesday

    Time Temperature Precipitation Wind Pressure Humidity
    00:00 +15°C° 0 mm 2 mps 756 mmHg 83%
    01:00 +15°C° 0 mm 2 mps 756 mmHg 85%
    02:00 +14°C° 0 mm 2 mps 756 mmHg 86%
    03:00 +14°C° 0 mm 2 mps 756 mmHg 87%
    04:00 +15°C° 0 mm 2 mps 756 mmHg 85%
    05:00 +15°C° 0 mm 2 mps 757 mmHg 83%
    06:00 +16°C° 0 mm 2 mps 757 mmHg 81%
    07:00 +18°C° 0 mm 2 mps 757 mmHg 75%
    08:00 +20°C° 0 mm 2 mps 757 mmHg 69%
    09:00 +23°C° 0 mm 2 mps 757 mmHg 63%
    10:00 +24°C° 0 mm 2 mps 757 mmHg 58%
    11:00 +25°C° 0 mm 2 mps 757 mmHg 53%
    12:00 +27°C° 0 mm 2 mps 757 mmHg 48%
    13:00 +27°C° 0 mm 2 mps 757 mmHg 46%
    14:00 +28°C° 0 mm 2 mps 756 mmHg 44%
    15:00 +28°C° 0 mm 2 mps 756 mmHg 43%
    16:00 +28°C° 0 mm 2 mps 756 mmHg 46%
    17:00 +28°C° 0 mm 2 mps 756 mmHg 50%
    18:00 +28°C° 0 mm 2 mps 756 mmHg 53%
    19:00 +26°C° 0 mm 2 mps 756 mmHg 57%
    20:00 +23°C° 0 mm 2 mps 756 mmHg 62%
    21:00 +20°C° 0 mm 3 mps 756 mmHg 66%
    22:00 +20°C° 0 mm 3 mps 756 mmHg 68%
    23:00 +19°C° 0 mm 3 mps 756 mmHg 70%

    27 June, Wednesday

    Time Temperature Precipitation Wind Pressure Humidity
    00:00 +18°C° 0 mm 3 mps 756 mmHg 72%
    01:00 +18°C° 0 mm 3 mps 756 mmHg 74%
    02:00 +17°C° 0 mm 3 mps 756 mmHg 76%
    03:00 +17°C° 0 mm 3 mps 757 mmHg 78%
    04:00 +17°C° 0 mm 3 mps 757 mmHg 78%
    05:00 +18°C° 0 mm 3 mps 757 mmHg 78%
    06:00 +18°C° 0 mm 3 mps 757 mmHg 78%
    07:00 +20°C° 0 mm 3 mps 757 mmHg 74%
    08:00 +22°C° 0 mm 3 mps 757 mmHg 69%
    09:00 +23°C° 0 mm 4 mps 757 mmHg 65%
    10:00 +26°C° 0 mm 4 mps 757 mmHg 60%
    11:00 +27°C° 0 mm 4 mps 757 mmHg 55%
    12:00 +28°C° 0 mm 4 mps 757 mmHg 50%
    13:00 +29°C° 0 mm 4 mps 757 mmHg 50%
    14:00 +29°C° 0 mm 3 mps 756 mmHg 49%
    15:00 +29°C° 0 mm 3 mps 756 mmHg 49%
    16:00 +29°C° 0 mm 3 mps 756 mmHg 51%
    17:00 +28°C° 0 mm 3 mps 756 mmHg 54%
    18:00 +28°C° 0 mm 3 mps 756 mmHg 57%
    19:00 +26°C° 0 mm 2 mps 756 mmHg 61%
    20:00 +24°C° 0 mm 2 mps 756 mmHg 65%
    21:00 +21°C° 0 mm 2 mps 756 mmHg 69%
    22:00 +20°C° 0 mm 2 mps 756 mmHg 71%
    23:00 +19°C° 0 mm 2 mps 756 mmHg 72%

    28 June, Thursday

    Time Temperature Precipitation Wind Pressure Humidity
    00:00 +18°C° 0 mm 3 mps 756 mmHg 73%
    01:00 +18°C° 0 mm 3 mps 757 mmHg 74%
    02:00 +17°C° 0 mm 3 mps 757 mmHg 75%
    03:00 +17°C° 0 mm 3 mps 757 mmHg 76%
    04:00 +17°C° 0 mm 3 mps 757 mmHg 76%
    05:00 +18°C° 0 mm 3 mps 757 mmHg 76%
    06:00 +18°C° 0 mm 3 mps 757 mmHg 76%
    07:00 +20°C° 0 mm 3 mps 757 mmHg 70%
    08:00 +22°C° 0 mm 4 mps 757 mmHg 65%
    09:00 +25°C° 0 mm 4 mps 757 mmHg 59%
    10:00 +26°C° 0 mm 4 mps 757 mmHg 54%
    11:00 +27°C° 0 mm 4 mps 756 mmHg 50%
    12:00 +29°C° 0 mm 4 mps 756 mmHg 45%
    13:00 +29°C° 0 mm 4 mps 756 mmHg 44%
    14:00 +30°C° 0 mm 4 mps 756 mmHg 43%
    15:00 +30°C° 0 mm 3 mps 756 mmHg 42%
    16:00 +30°C° 0 mm 3 mps 755 mmHg 45%
    17:00 +29°C° 0 mm 3 mps 755 mmHg 49%
    18:00 +29°C° 0 mm 2 mps 755 mmHg 52%
    19:00 +27°C° 0 mm 2 mps 755 mmHg 57%
    20:00 +25°C° 0 mm 2 mps 755 mmHg 61%
    21:00 +23°C° 0 mm 2 mps 755 mmHg 66%
    22:00 +21°C° 0 mm 2 mps 755 mmHg 68%
    23:00 +20°C° 0 mm 2 mps 755 mmHg 70%

    29 June, Friday

    Time Temperature Precipitation Wind Pressure Humidity
    00:00 +19°C° 0 mm 2 mps 755 mmHg 72%
    01:00 +18°C° 0 mm 2 mps 755 mmHg 75%
    02:00 +18°C° 0 mm 2 mps 755 mmHg 77%
    03:00 +17°C° 0 mm 2 mps 755 mmHg 80%
    04:00 +18°C° 0 mm 2 mps 755 mmHg 79%
    05:00 +18°C° 0 mm 2 mps 755 mmHg 78%
    06:00 +19°C° 0 mm 3 mps 755 mmHg 78%
    07:00 +21°C° 0 mm 3 mps 755 mmHg 72%
    08:00 +24°C° 0 mm 3 mps 754 mmHg 66%
    09:00 +26°C° 0 mm 3 mps 754 mmHg 61%
    10:00 +27°C° 0 mm 4 mps 754 mmHg 56%
    11:00 +28°C° 0 mm 4 mps 754 mmHg 52%
    12:00 +29°C° 0 mm 4 mps 754 mmHg 47%
    13:00 +29°C° 0 mm 4 mps 753 mmHg 47%
    14:00 +30°C° 0 mm 4 mps 753 mmHg 46%
    15:00 +30°C° 0 mm 4 mps 753 mmHg 46%
    16:00 +29°C° 0 mm 4 mps 753 mmHg 49%
    17:00 +29°C° 0 mm 3 mps 752 mmHg 53%
    18:00 +29°C° 0 mm 3 mps 752 mmHg 56%
    19:00 +27°C° 0 mm 3 mps 752 mmHg 61%
    20:00 +25°C° 0 mm 3 mps 752 mmHg 66%
    21:00 +22°C° 0 mm 3 mps 752 mmHg 71%
    22:00 +21°C° 0 mm 3 mps 752 mmHg 74%
    23:00 +20°C° 0 mm 3 mps 752 mmHg 77%
    Show more